Eau Claire, WI

8:27 AM CDT on September 19, 2019 (GMT -0500)
Chippewa Valley Regional

Weather History for KEAU - August, 2019

Change the Weather History Date:

Thursday, August 22, 2019

  Actual Average Record
Temperature  
Mean Temperature 64 °F 69 °F  
Max Temperature 73 °F 80 °F 97 °F (1948)
Min Temperature 55 °F 58 °F 37 °F (1950)
Degree Days  
Heating Degree Days 0 1  
Month to date heating degree days 1 17  
Since 1 June heating degree days 68 90  
Since 1 July heating degree days 4 28  
Cooling Degree Days 0 5  
Month to date cooling degree days 94 124  
Year to date cooling degree days 390 490  
Since 1 June cooling degree days 380 458  
Growing Degree Days 14 (Base 50)    
Moisture  
Dew Point 53 °F    
Average Humidity 68    
Maximum Humidity 93    
Minimum Humidity 45    
Precipitation  
Precipitation 0.00 in 0.15 in 1.76 in (1900)
Month to date precipitation 2.78 3.29  
Year to date precipitation 27.74 20.94  
Snow  
Snow 0.00 in 0.00 in 0.00 in ()
Month to date snowfall 0.0 0.0  
Since 1 June snowfall 0.0 0.0  
Since 1 July snowfall 0.0 0.0  
Snow Depth 0.00 in    
Sea Level Pressure  
Sea Level Pressure 30.06 in    
Wind  
Wind Speed 3 mph ()    
Max Wind Speed 13 mph    
Max Gust Speed 19 mph    
Visibility 10.0 miles    
Events      
T = Trace of Precipitation, MM = Missing Value Source: Averaged Metar Reports

Daily Weather History Graph

Daily Weather History Graph

Search for Another Location

Airport or City:

Astronomy

Aug. 22, 2019 Rise Set
Actual Time 6:16 AM CDT 8:00 PM CDT
Civil Twilight 5:44 AM CDT 8:31 PM CDT
Nautical Twilight 5:06 AM CDT 9:09 PM CDT
Astronomical Twilight 4:25 AM CDT 9:50 PM CDT
Moon 11:33 PM CDT (8/22) 1:08 PM CDT (8/22)
Length of Visible Light 14h 47m
Length of Day
13h 44m
Waning Gibbous, 59% of the Moon is Illuminated
Aug 22
Waning Gibbous
Aug 23
Last Quarter
Aug 30
New
Sep 5
First Quarter
Sep 13
Full

Hourly Weather History & Observations

Time (CDT) Temp. Dew Point Humidity Pressure Visibility Wind Dir Wind Speed Gust Speed Precip Events Conditions
12:56 AM 62.1 °F 57.9 °F 86% 30.03 in 10.0 mi Calm Calm - N/A   Overcast
1:56 AM 61.0 °F 57.0 °F 87% 30.02 in 10.0 mi NNE 3.5 mph - N/A   Overcast
2:56 AM 60.1 °F 55.0 °F 83% 30.02 in 10.0 mi Calm Calm - N/A   Overcast
3:56 AM 59.0 °F 55.0 °F 87% 30.03 in 10.0 mi Calm Calm - N/A   Overcast
4:56 AM 59.0 °F 54.0 °F 83% 30.01 in 10.0 mi Calm Calm - N/A   Overcast
5:56 AM 55.9 °F 53.1 °F 90% 30.02 in 10.0 mi NNW 3.5 mph - N/A   Mostly Cloudy
6:56 AM 55.9 °F 53.1 °F 90% 30.04 in 10.0 mi Calm Calm - N/A   Overcast
7:56 AM 59.0 °F 54.0 °F 83% 30.06 in 10.0 mi NW 3.5 mph - N/A   Mostly Cloudy
8:56 AM 61.0 °F 54.0 °F 78% 30.06 in 10.0 mi North 4.6 mph - N/A   Mostly Cloudy
9:56 AM 62.1 °F 54.0 °F 75% 30.07 in 10.0 mi NNW 4.6 mph - N/A   Overcast
10:56 AM 66.0 °F 55.0 °F 68% 30.08 in 10.0 mi Variable 3.5 mph - N/A   Mostly Cloudy
11:56 AM 71.1 °F 52.0 °F 51% 30.07 in 10.0 mi NNE 6.9 mph - N/A   Scattered Clouds
12:56 PM 72.0 °F 51.1 °F 48% 30.06 in 10.0 mi North 6.9 mph - N/A   Overcast
1:56 PM 71.1 °F 52.0 °F 51% 30.06 in 10.0 mi Variable 6.9 mph - N/A   Overcast
2:56 PM 72.0 °F 51.1 °F 48% 30.06 in 10.0 mi NNE 5.8 mph - N/A   Mostly Cloudy
3:56 PM 73.9 °F 51.1 °F 45% 30.06 in 10.0 mi NE 8.1 mph - N/A   Scattered Clouds
4:56 PM 72.0 °F 51.1 °F 48% 30.06 in 10.0 mi NE 8.1 mph - N/A   Overcast
5:56 PM 72.0 °F 52.0 °F 49% 30.06 in 10.0 mi NE 9.2 mph - N/A   Mostly Cloudy
6:56 PM 68.0 °F 51.1 °F 55% 30.07 in 10.0 mi NE 6.9 mph - N/A   Scattered Clouds
7:56 PM 64.9 °F 51.1 °F 61% 30.09 in 10.0 mi NE 5.8 mph - N/A   Mostly Cloudy
8:56 PM 64.0 °F 52.0 °F 65% 30.11 in 10.0 mi NE 5.8 mph - N/A   Overcast
9:56 PM 63.0 °F 51.1 °F 65% 30.12 in 10.0 mi NE 6.9 mph - N/A   Scattered Clouds
10:56 PM 60.1 °F 50.0 °F 69% 30.13 in 10.0 mi NE 4.6 mph - N/A   Partly Cloudy
11:56 PM 57.9 °F 51.1 °F 78% 30.14 in 10.0 mi NE 4.6 mph - N/A   Partly Cloudy